Wind_Speed
17 16 15 14 14 13 13 12 12 12 11 10 10 10 9 9 8 7 7 7 7 7 7 6 6 5 5 5 5 5 5 5 5 5 5 4 4 5 4 4 5 6 6
18 18 17 16 15 15 14 14 13 13 12 11 11 10 10 10 9 8 8 8 8 8 7 7 7 7 7 6 6 6 6 6 6 6 6 6 5 6 6 6 6 7 7
20 20 19 18 17 16 16 15 15 14 14 13 12 12 12 11 10 9 9 9 8 8 8 8 8 8 8 8 7 7 7 7 7 8 7 7 7 7 7 7 8 8 9
22 21 21 20 19 18 18 17 17 16 16 15 15 14 13 13 12 11 10 10 9 9 9 10 10 10 10 9 9 9 9 9 9 9 9 9 9 8 8 9 9 10 10
23 22 22 22 21 20 20 19 19 19 18 18 17 16 15 15 14 13 12 12 11 11 11 11 11 11 11 11 10 10 11 10 10 11 11 11 11 11 11 11 11 11 12
24 24 23 22 22 21 21 21 20 21 20 19 19 18 17 17 16 15 14 14 13 13 12 12 13 12 12 13 12 12 12 12 12 12 12 13 13 13 13 13 13 13 14
26 25 25 24 23 22 22 22 22 22 22 21 20 20 20 19 18 18 17 16 15 15 14 14 14 14 14 14 14 14 14 14 14 14 14 15 15 15 15 15 15 16 16
28 27 26 26 25 24 24 24 23 23 23 23 23 22 22 21 20 20 19 19 18 17 16 16 16 16 15 15 15 16 16 16 16 17 17 17 17 17 17 17 17 18 18
29 28 27 27 26 26 25 25 25 24 24 25 25 24 24 23 23 23 22 21 20 20 19 18 18 18 18 18 18 18 18 18 18 18 19 19 19 19 20 20 20 21 21
29 29 28 27 27 26 26 26 26 26 26 26 26 26 25 25 25 25 24 24 23 22 22 21 21 20 21 20 20 20 20 20 20 20 20 21 21 21 21 21 22 22 22
31 30 30 29 29 29 28 29 28 28 28 27 28 27 26 27 27 26 26 26 26 25 24 24 24 23 23 23 22 22 23 23 22 23 23 23 23 23 23 24 24 24 24
32 31 31 30 30 30 30 30 30 29 30 29 30 29 28 29 28 28 28 28 28 27 27 26 26 26 26 25 25 25 25 26 26 26 26 25 25 25 26 26 26 26 26
33 33 32 32 32 32 32 32 31 31 31 31 32 31 29 30 30 30 30 30 30 30 30 29 29 28 28 27 27 27 27 27 28 28 28 28 27 28 28 28 28 28 28
35 35 35 35 34 33 34 34 33 32 32 32 33 33 31 32 31 31 31 32 32 32 32 32 31 31 30 30 30 30 29 29 29 29 29 29 29 29 29 29 29 29 30
36 35 35 36 35 35 35 35 35 34 34 34 34 35 34 34 34 33 33 33 33 33 33 33 33 33 32 32 32 32 31 30 30 31 31 31 31 31 31 31 31 31 31
36 36 35 36 36 36 36 36 36 36 36 36 36 36 36 36 36 36 35 35 35 35 34 34 34 34 34 34 34 33 33 33 32 32 33 33 33 33 32 33 33 33 33
36 36 36 35 36 36 36 37 37 37 37 38 38 38 37 38 38 38 37 37 37 37 36 35 35 35 35 35 35 35 35 35 34 34 35 34 34 34 34 34 34 35 35
35 36 36 36 36 37 37 38 38 39 39 39 40 40 40 40 39 39 39 39 39 39 38 38 38 37 37 37 37 38 37 36 37 37 36 36 35 35 36 36 36 36 37
35 36 37 38 38 39 39 39 40 40 40 40 40 40 40 41 41 40 40 40 41 41 41 41 40 40 39 39 39 39 39 39 39 39 38 38 38 38 38 38 38 39 39
35 37 38 39 40 41 41 41 41 41 41 42 41 41 42 42 41 42 41 41 42 42 43 43 43 42 41 41 40 41 41 41 41 40 40 40 40 41 41 40 40 41 41
36 37 39 40 41 42 42 42 42 42 43 43 42 42 42 44 43 43 43 43 43 44 44 44 44 44 43 43 42 41 41 41 41 41 41 42 42 42 43 43 43 43 43
37 39 39 39 42 42 43 44 43 43 43 44 44 44 44 44 45 45 45 45 45 45 45 46 46 45 45 44 44 42 42 42 43 42 42 43 44 45 45 45 45 45 45
37 39 40 40 40 42 43 43 43 43 44 44 45 45 46 46 46 46 46 46 47 46 46 46 46 46 45 45 45 44 44 44 45 44 44 45 45 46 46 46 46 46 46
36 37 38 39 40 42 43 44 44 44 45 45 46 46 46 47 47 47 47 47 46 46 47 47 46 47 47 47 46 45 46 46 47 46 45 46 47 46 47 47 47 48 48
36 37 38 39 40 41 44 45 45 45 45 45 47 48 48 48 48 48 48 47 47 47 47 47 47 47 48 48 48 48 48 48 47 48 47 47 48 48 48 48 49 49 49
36 37 38 39 39 41 42 44 45 46 46 45 46 47 47 47 47 47 47 47 48 48 47 47 48 48 48 48 49 49 49 49 48 49 49 49 48 49 49 50 50 50 49
Wind_Direction
244 244 245 245 245 246 246 245 243 241 240 239 238 234 232 230 228 228 230 231 235 240 243 245 242 242 246 250 255 259 267 272 274 274 269 268 279 285 288 294 301 304 307
244 243 243 244 245 246 246 244 241 239 238 237 237 235 233 233 233 234 235 236 238 243 247 248 249 249 252 254 254 256 261 265 268 271 271 271 276 281 281 288 295 301 304
243 243 244 245 246 246 245 243 242 241 240 237 236 237 237 238 238 239 239 240 242 245 250 252 255 254 255 256 258 260 262 264 265 266 268 271 274 277 279 286 292 296 299
243 243 244 244 245 246 244 244 245 243 241 240 240 239 240 241 243 243 243 244 246 249 253 256 256 255 256 257 258 260 264 267 266 267 269 271 273 275 279 283 289 294 296
242 243 245 244 245 245 243 244 244 243 242 240 241 241 241 242 243 245 246 246 248 252 256 258 259 257 256 257 259 260 262 264 265 267 269 271 272 274 278 282 286 291 294
242 243 245 243 243 244 244 244 244 244 243 243 242 242 243 243 243 245 248 249 250 252 256 258 260 260 258 259 261 263 265 265 266 266 268 269 271 273 277 281 285 289 292
241 242 244 244 244 245 244 244 243 244 244 244 243 242 243 243 244 246 248 250 251 254 256 258 260 261 260 261 261 263 263 265 266 268 267 270 272 274 276 280 284 288 289
240 241 243 244 245 245 245 247 246 246 246 244 244 245 246 245 245 247 248 249 251 253 256 259 260 261 262 261 262 264 265 265 268 269 270 271 273 274 276 279 282 285 287
241 241 243 243 244 245 244 245 244 245 246 246 246 247 249 249 248 248 249 250 252 254 256 259 260 260 261 262 263 263 264 265 270 272 273 272 272 273 275 278 280 282 285
240 240 241 243 244 244 243 244 244 244 246 246 247 248 249 250 250 250 250 252 253 255 256 258 260 261 262 264 264 264 265 267 270 273 274 273 273 273 274 276 279 281 284
239 240 241 242 243 243 243 245 245 245 245 246 248 249 250 251 251 252 252 253 254 255 256 258 260 262 262 264 264 264 265 267 269 271 273 274 274 274 275 277 279 281 282
240 241 242 243 243 243 244 245 245 245 247 247 248 250 251 252 252 252 253 254 254 255 256 258 260 262 263 264 265 266 266 267 269 270 271 272 273 274 276 278 279 280 281
240 241 242 243 244 244 244 245 245 246 248 248 249 250 251 253 253 253 253 254 255 256 257 258 260 262 262 263 265 267 268 268 269 270 270 271 272 274 276 277 277 278 279
241 242 243 243 244 245 245 245 246 247 248 250 251 252 253 254 254 254 255 255 256 257 258 259 260 261 262 264 265 267 268 269 270 270 271 272 273 275 277 277 277 278 278
241 242 243 244 244 244 245 246 246 247 249 250 251 253 254 255 256 255 257 257 257 258 259 259 261 262 263 264 266 267 269 269 270 270 271 272 273 275 276 276 277 278 279
241 241 243 244 244 243 245 246 247 247 249 250 252 253 254 255 256 256 257 257 257 258 258 259 261 262 263 264 265 267 268 269 270 270 271 273 273 274 275 276 277 278 279
242 242 243 244 245 245 246 248 248 248 251 251 252 253 254 255 256 256 256 256 257 257 258 259 261 262 264 264 265 267 268 269 269 271 271 272 272 273 274 275 276 278 280
243 243 243 244 246 247 248 250 249 250 251 251 252 253 255 256 256 255 256 256 257 258 258 259 261 263 265 265 266 267 267 268 269 271 272 272 271 272 274 275 276 278 280
245 245 245 245 247 249 250 251 251 251 252 252 253 254 257 257 257 256 256 257 257 258 258 260 262 263 265 266 266 267 267 268 269 270 271 271 271 272 273 275 276 278 279
250 249 249 249 250 250 250 251 251 252 252 252 253 255 257 258 258 258 257 258 258 259 260 261 263 264 265 266 266 267 267 268 269 270 271 271 272 273 273 274 276 277 278
252 252 253 252 251 250 251 251 251 251 252 252 253 255 257 258 257 258 258 258 259 261 262 262 263 265 266 265 266 267 267 268 269 270 271 271 272 273 274 275 275 276 277
253 254 253 252 252 251 252 251 251 251 252 253 254 256 257 257 257 258 259 259 260 261 263 263 262 264 265 266 266 267 268 268 269 270 271 272 272 272 273 274 274 275 277
254 255 254 254 253 251 251 252 251 251 253 254 255 257 257 257 258 258 258 259 260 261 263 263 264 264 265 267 267 268 269 270 269 269 270 272 273 272 272 273 275 275 277
255 256 254 254 254 252 250 251 251 252 253 256 257 257 257 258 259 259 259 259 260 262 263 263 264 264 265 268 268 269 270 272 271 270 270 270 272 272 273 273 273 275 277
255 255 255 255 254 252 252 251 251 252 254 257 257 258 259 259 259 259 259 260 261 262 262 263 264 265 266 267 268 268 269 271 272 271 270 271 271 271 272 273 275 275 276
257 256 256 256 255 253 253 252 252 253 254 256 257 258 259 259 259 260 260 261 262 261 262 264 264 265 265 267 268 269 269 270 271 271 271 271 271 271 272 274 276 275 276
Height
5839 5840 5841 5841 5842 5842 5843 5843 5844 5844 5845 5845 5846 5846 5847 5847 5848 5848 5848 5848 5849 5849 5849 5849 5849 5849 5849 5849 5849 5849 5848 5848 5848 5848 5847 5847 5846 5846 5846 5846 5845 5845 5844
5836 5837 5838 5838 5839 5840 5840 5841 5842 5842 5843 5843 5844 5844 5845 5846 5846 5846 5847 5847 5847 5848 5848 5848 5848 5848 5848 5848 5848 5847 5847 5847 5847 5846 5846 5846 5845 5845 5845 5844 5844 5844 5843
5832 5833 5834 5836 5836 5837 5838 5838 5839 5840 5841 5841 5842 5842 5843 5844 5844 5845 5845 5845 5846 5846 5846 5846 5847 5847 5846 5846 5846 5846 5846 5845 5845 5845 5845 5845 5844 5844 5844 5843 5843 5842 5841
5828 5829 5831 5832 5833 5834 5835 5836 5836 5837 5838 5839 5839 5840 5841 5842 5842 5843 5843 5844 5844 5844 5844 5844 5844 5844 5844 5844 5844 5844 5844 5844 5843 5843 5843 5843 5842 5842 5842 5841 5841 5840 5839
5824 5825 5827 5828 5829 5830 5831 5832 5833 5834 5835 5836 5837 5837 5838 5839 5840 5840 5841 5841 5842 5842 5842 5842 5842 5842 5842 5842 5842 5842 5842 5842 5841 5841 5841 5840 5840 5840 5840 5839 5839 5838 5837
5819 5821 5822 5823 5825 5826 5827 5828 5830 5831 5832 5833 5833 5834 5835 5836 5837 5837 5838 5839 5839 5839 5839 5839 5839 5839 5839 5839 5839 5839 5840 5839 5839 5839 5838 5838 5838 5837 5837 5837 5836 5835 5834
5814 5815 5817 5818 5820 5822 5823 5824 5825 5827 5828 5829 5830 5831 5831 5832 5833 5834 5835 5835 5836 5836 5836 5836 5836 5836 5836 5836 5836 5836 5836 5836 5836 5836 5835 5835 5835 5834 5834 5834 5833 5832 5831
5808 5810 5811 5813 5815 5817 5818 5819 5821 5822 5823 5824 5825 5827 5827 5828 5830 5830 5831 5832 5832 5833 5833 5833 5833 5833 5833 5833 5833 5833 5833 5833 5833 5832 5832 5832 5831 5831 5831 5830 5829 5828 5827
5802 5804 5806 5807 5809 5811 5813 5814 5816 5817 5818 5820 5821 5822 5823 5824 5825 5826 5827 5828 5828 5829 5829 5829 5829 5830 5829 5829 5829 5829 5829 5829 5829 5828 5828 5828 5827 5827 5827 5826 5825 5824 5823
5795 5797 5799 5801 5803 5805 5807 5809 5810 5812 5813 5815 5816 5817 5818 5819 5820 5821 5822 5823 5824 5824 5825 5825 5825 5826 5826 5825 5826 5825 5825 5825 5825 5824 5824 5824 5823 5823 5822 5821 5821 5820 5819
5788 5790 5793 5795 5797 5799 5801 5803 5804 5806 5808 5809 5810 5811 5813 5814 5815 5816 5817 5818 5819 5820 5820 5820 5821 5821 5821 5821 5821 5821 5821 5821 5820 5820 5819 5819 5818 5818 5817 5816 5816 5815 5814
5781 5783 5786 5788 5790 5792 5794 5796 5798 5800 5802 5803 5804 5806 5807 5808 5809 5810 5811 5812 5813 5814 5815 5815 5815 5816 5816 5816 5816 5816 5816 5816 5815 5815 5814 5814 5813 5813 5812 5811 5810 5809 5808
5774 5776 5778 5780 5783 5785 5787 5789 5791 5793 5795 5797 5798 5799 5801 5802 5803 5804 5805 5806 5807 5808 5809 5809 5810 5810 5810 5811 5811 5810 5810 5810 5810 5809 5809 5808 5808 5807 5806 5805 5805 5804 5802
5765 5767 5769 5772 5775 5777 5780 5782 5784 5786 5788 5790 5791 5793 5794 5796 5797 5798 5799 5800 5800 5801 5802 5803 5803 5804 5804 5804 5804 5804 5804 5804 5803 5803 5803 5802 5801 5801 5800 5799 5798 5797 5796
5757 5759 5761 5764 5767 5770 5772 5774 5777 5779 5781 5783 5784 5786 5787 5789 5790 5791 5792 5793 5793 5794 5795 5796 5797 5797 5797 5798 5798 5798 5797 5797 5797 5796 5796 5796 5795 5794 5793 5792 5791 5790 5789
5749 5751 5753 5756 5759 5761 5764 5766 5769 5771 5773 5775 5776 5778 5779 5781 5782 5783 5784 5785 5786 5787 5788 5788 5789 5790 5790 5790 5790 5790 5790 5790 5789 5789 5788 5788 5787 5787 5786 5785 5784 5783 5782
5742 5744 5746 5748 5750 5753 5756 5758 5760 5763 5765 5767 5768 5769 5771 5772 5774 5775 5776 5777 5778 5779 5780 5780 5781 5782 5782 5782 5783 5783 5782 5782 5782 5781 5780 5780 5779 5779 5778 5777 5776 5775 5774
5733 5736 5738 5740 5742 5745 5747 5749 5751 5754 5755 5758 5759 5761 5762 5763 5765 5766 5767 5768 5769 5770 5771 5772 5773 5774 5774 5774 5774 5774 5774 5774 5773 5773 5772 5771 5771 5770 5769 5768 5767 5766 5765
5725 5727 5729 5732 5734 5736 5738 5740 5742 5744 5746 5748 5750 5752 5753 5754 5756 5757 5758 5759 5760 5761 5763 5764 5764 5765 5765 5765 5766 5766 5765 5765 5765 5764 5764 5763 5762 5761 5761 5759 5758 5757 5756
5717 5719 5721 5723 5725 5726 5728 5730 5732 5734 5736 5739 5741 5742 5743 5745 5746 5748 5749 5750 5751 5752 5753 5754 5755 5756 5756 5756 5756 5756 5756 5756 5756 5755 5754 5754 5753 5752 5751 5750 5749 5747 5746
5709 5710 5712 5713 5715 5717 5719 5721 5723 5725 5727 5729 5731 5732 5733 5735 5737 5738 5739 5741 5742 5743 5743 5744 5745 5746 5746 5746 5747 5747 5747 5746 5746 5745 5745 5744 5743 5742 5741 5739 5738 5737 5735
5700 5701 5702 5703 5705 5707 5708 5710 5712 5714 5717 5719 5720 5722 5723 5724 5726 5727 5729 5730 5731 5732 5733 5733 5734 5735 5736 5736 5736 5736 5736 5737 5736 5735 5735 5734 5733 5731 5730 5728 5727 5725 5724
5690 5691 5692 5693 5695 5696 5698 5699 5701 5703 5706 5707 5709 5711 5712 5713 5714 5716 5717 5719 5720 5721 5722 5723 5723 5724 5725 5725 5724 5725 5725 5725 5725 5725 5724 5723 5721 5719 5718 5717 5715 5714 5712
5680 5681 5682 5683 5684 5686 5688 5689 5691 5693 5695 5697 5698 5699 5701 5702 5703 5704 5706 5707 5708 5709 5710 5711 5712 5712 5713 5713 5713 5713 5713 5712 5712 5713 5713 5711 5709 5707 5706 5705 5704 5702 5700
5670 5672 5672 5673 5674 5676 5677 5679 5680 5682 5684 5685 5687 5688 5689 5690 5691 5693 5694 5695 5696 5697 5698 5699 5700 5700 5701 5701 5701 5701 5701 5700 5699 5699 5700 5700 5698 5696 5695 5693 5691 5690 5688
5661 5661 5662 5663 5664 5665 5666 5667 5669 5671 5672 5674 5675 5676 5677 5678 5679 5681 5682 5683 5684 5685 5686 5687 5687 5688 5688 5688 5688 5688 5688 5688 5687 5686 5686 5686 5685 5684 5682 5681 5679 5677 5675